Frisco, NC

1:01 AM EST on February 09, 2016 (GMT -0500)
Mitchell

Weather History for KHSE - June, 2012

Change the Weather History Date:

Thursday, June 14, 2012

  Actual Average Record
Temperature  
Mean Temperature 73 °F 75 °F  
Max Temperature 76 °F 81 °F 92 °F (1981)
Min Temperature 69 °F 69 °F 55 °F (1982)
Degree Days  
Heating Degree Days 0 0  
Month to date heating degree days 0 0  
Since 1 June heating degree days 0 0  
Since 1 July heating degree days 1688 2584  
Cooling Degree Days 8 10  
Month to date cooling degree days 131 119  
Year to date cooling degree days 456 262  
Since 1 June cooling degree days 131 119  
Growing Degree Days 22 (Base 50)    
Moisture  
Dew Point 64 °F    
Average Humidity 72    
Maximum Humidity 79    
Minimum Humidity 64    
Precipitation  
Precipitation T in 0.13 in 3.25 in (1912)
Month to date precipitation 1.85 1.75  
Year to date precipitation 24.63 22.99  
Snow  
Snow 0.00 in - - ()
Month to date snowfall 0.0  
Since 1 July snowfall T  
Snow Depth 0.00 in    
Sea Level Pressure  
Sea Level Pressure 30.01 in    
Wind  
Wind Speed 13 mph (NNE)    
Max Wind Speed 20 mph    
Max Gust Speed 33 mph    
Visibility 10 miles    
Events Rain    
T = Trace of Precipitation, MM = Missing Value Source: NWS Daily Summary

Daily Weather History Graph

Daily Weather History Graph

Search for Another Location

Airport or City:

Trip Planner

Search our weather history database for the weather conditions in past years. The results will help you decide how hot, cold, wet, or windy it might be!

Date:

Astronomy

Jun. 14, 2012 Rise Set
Actual Time 5:47 AM EDT 8:18 PM EDT
Civil Twilight 5:17 AM EDT 8:48 PM EDT
Nautical Twilight 4:40 AM EDT 9:25 PM EDT
Astronomical Twilight 3:59 AM EDT 10:05 PM EDT
Moon 2:21 AM EDT (6/14) 4:05 PM EDT (6/14)
Length of Visible Light 15h 30m
Length of Day
14h 31m
Waning Crescent, 21% of the Moon is Illuminated
Jun 14
Waning Crescent
Jun 19
New
Jun 26
First Quarter
Jul 3
Full
Jul 10
Last Quarter

Hourly Weather History & Observations

Time (EDT) Temp. Dew Point Humidity Pressure Visibility Wind Dir Wind Speed Gust Speed Precip Events Conditions
12:51 AM 73.9 °F 64.0 °F 71% 29.94 in 10.0 mi NNE 6.9 mph - N/A   Clear
1:51 AM 73.9 °F 61.0 °F 64% 29.94 in 10.0 mi North 10.4 mph 19.6 mph N/A   Clear
2:51 AM 73.9 °F 61.0 °F 64% 29.93 in 10.0 mi NNW 8.1 mph - N/A   Clear
3:51 AM 73.0 °F 62.1 °F 68% 29.93 in 10.0 mi Variable 6.9 mph - N/A   Partly Cloudy
4:04 AM 73.4 °F 62.6 °F 69% 29.93 in 10.0 mi Variable 5.8 mph - N/A   Mostly Cloudy
4:51 AM 73.0 °F 66.0 °F 79% 29.93 in 10.0 mi North 10.4 mph 20.7 mph N/A   Overcast
5:51 AM 73.0 °F 66.9 °F 81% 29.94 in 10.0 mi North 9.2 mph 20.7 mph N/A   Overcast
6:51 AM 72.0 °F 66.0 °F 81% 29.96 in 10.0 mi NNE 11.5 mph 21.9 mph 0.00 in Rain Light Rain
7:33 AM 73.4 °F 66.2 °F 78% 29.96 in 10.0 mi NNE 11.5 mph 23.0 mph N/A   Mostly Cloudy
7:51 AM 72.0 °F 66.0 °F 81% 29.97 in 10.0 mi NNE 13.8 mph 25.3 mph N/A   Overcast
8:32 AM 73.4 °F 64.4 °F 73% 29.98 in 10.0 mi NNE 12.7 mph 29.9 mph N/A   Overcast
8:41 AM 73.4 °F 64.4 °F 73% 29.98 in 10.0 mi NNE 15.0 mph 26.5 mph N/A   Overcast
8:51 AM 73.0 °F 66.0 °F 79% 29.99 in 10.0 mi NNE 13.8 mph 26.5 mph N/A   Overcast
9:51 AM 73.9 °F 66.0 °F 76% 30.00 in 10.0 mi NNE 11.5 mph 24.2 mph N/A   Overcast
10:51 AM 73.9 °F 66.0 °F 76% 30.01 in 10.0 mi NNE 13.8 mph 26.5 mph N/A   Overcast
11:51 AM 75.0 °F 64.9 °F 71% 30.02 in 10.0 mi NNE 12.7 mph 27.6 mph N/A   Overcast
12:51 PM 73.0 °F 64.9 °F 76% 30.03 in 10.0 mi NNE 15.0 mph 27.6 mph N/A   Overcast
1:20 PM 73.4 °F 64.4 °F 73% 30.03 in 10.0 mi NNE 15.0 mph 28.8 mph N/A   Overcast
1:51 PM 73.9 °F 64.9 °F 73% 30.04 in 10.0 mi NNE 16.1 mph 26.5 mph N/A   Overcast
2:51 PM 75.0 °F 64.9 °F 71% 30.03 in 10.0 mi NNE 12.7 mph 28.8 mph N/A   Overcast
3:51 PM 75.0 °F 64.0 °F 69% 30.04 in 10.0 mi NNE 16.1 mph 33.4 mph N/A   Overcast
4:51 PM 73.0 °F 64.0 °F 73% 30.04 in 10.0 mi NNE 11.5 mph 28.8 mph N/A   Overcast
5:30 PM 73.4 °F 64.4 °F 73% 30.04 in 10.0 mi NNE 15.0 mph 27.6 mph N/A   Overcast
5:37 PM 73.4 °F 64.4 °F 73% 30.04 in 10.0 mi NNE 15.0 mph 29.9 mph N/A   Overcast
5:51 PM 73.9 °F 64.0 °F 71% 30.04 in 10.0 mi NNE 17.3 mph 27.6 mph N/A   Overcast
6:10 PM 73.4 °F 64.4 °F 73% 30.04 in 10.0 mi NNE 11.5 mph 28.8 mph N/A   Overcast
6:22 PM 73.4 °F 64.4 °F 73% 30.04 in 10.0 mi NNE 16.1 mph 28.8 mph N/A   Overcast
6:51 PM 72.0 °F 63.0 °F 73% 30.05 in 10.0 mi NE 18.4 mph 28.8 mph N/A   Overcast
7:51 PM 71.1 °F 62.1 °F 73% 30.06 in 10.0 mi NE 13.8 mph 27.6 mph N/A   Overcast
8:29 PM 71.6 °F 62.6 °F 73% 30.07 in 10.0 mi NE 12.7 mph 27.6 mph N/A   Mostly Cloudy
8:51 PM 70.0 °F 62.1 °F 76% 30.08 in 10.0 mi NE 13.8 mph 31.1 mph N/A   Mostly Cloudy
9:51 PM 70.0 °F 61.0 °F 73% 30.10 in 10.0 mi NNE 15.0 mph 25.3 mph N/A   Overcast
10:51 PM 70.0 °F 61.0 °F 73% 30.10 in 10.0 mi NE 11.5 mph 24.2 mph N/A   Overcast
11:51 PM 69.1 °F 60.1 °F 73% 30.09 in 10.0 mi NE 13.8 mph 27.6 mph N/A   Partly Cloudy